PEGASUS DEB

Satellite information

Favourite Embed

Satellite Type and Status

DEBRISIN ORBIT

Key statistics

Satellite PEGASUS DEB at a glance.

Uptime

11313

Days in orbit

Revolutions

≈ 15.3

Per day

Orbit

LEO

Low Earth Orbit

Inclination

82.0

Latest

Satellite identification and parameters

Extended collection of information and parameters for PEGASUS DEB.

Object identification

Identified? True

Debris? True

Object name: PEGASUS DEB

International designator: 1994-029AG

Object number (NORAD): 23986

Object ID (CCSDS): 23986

Country: UNITED STATES OF AMERICA (US)

Current information (Y/N): Y

RCS size: SMALL

Orbital parameters

Period: 94.424 minutes

Inclination: 82.0463 deg

SMA: 6868.821 km

Apoapsis: 518.584 km

Periapsis: 462.787 km

RAAN: 52.9827 deg

Eccentricy: 0.0040616

Argument of periapsis: 145.7226 deg

Mean anomaly: 214.6644 deg

Mean motion: 15.25033832 rev/day

Mean motion (dot): 0.00015275 rev/day2

B* drag term: 0.00059564 1/REarth

Two-line elements (TLE)

Creation date: May 8, 2025, 10:46 p.m.

Reference frame: TEME

Reference center: EARTH

Epoch: May 8, 2025, 12:34 p.m. UTC

TLE line 0: 0 PEGASUS DEB

TLE line 1: 1 23986U 94029AG 25128.52396241 .00015275 00000-0 59564-3 0 9994

TLE line 2: 2 23986 82.0463 52.9827 0040616 145.7226 214.6644 15.25033832568794

Live tracking on map

Real-time ground track for satellite PEGASUS DEB.

In-orbit conjunctions

A list of the most updated potential collisions computed for object PEGASUS DEB.

Target Orbit TCA Probability of collision Miss distance Type
CZ-4C R/B SSO 2024-08-23 13:31:28 0.0001827931 950.0 (m) ROCKET BODY
COSMOS 1862 LEO 2024-06-30 00:35:56 0.001064007 88.0 (m) PAYLOAD

Associated space launch

PEGASUS DEB was lifted into orbit during the mission ‘Pegasus HAPS | Space Test Experiments Platform 2 (STEP-2)’, on board a Pegasus HAPS space rocket.

The launch took place on May 19, 1994, 5:03 p.m. from Edwards Air Force Base.

For more information about the launch, click the button.

Launch to space Pegasus HAPS | Space Test Experiments Platform 2 (STEP-2)
Pegasus HAPS | Space Test Experiments Platform 2 (STEP-2)

Agency: N/A

Status: Launch Successful

Launch date: May 19, 1994, 5:03 p.m. UTC

Rocket: Pegasus HAPS

Launch pad: Edwards Air Force Base

Location: Air launch to orbit

...

Latest news about this satellite

There are no fresh news available about this satellite. Check back as we update our databases every day.


Newsletter sign-up

Weekly statistics, charts and insights to help you stay on top of the space industry.